| time (UTC) | temp F | wind direction | speed knots | gust knots | rain 1hr in | rain 24hr in | rain mn in | humidity % | barometer mb |
| 20260508060019 | 43 | 290 | 0.0 | 7.0 | 0.00 | 0.01 | 0.00 | 59 | 1008.9 |
| 20260508054518 | 43 | 340 | 1.7 | 7.8 | 0.00 | 0.02 | 0.00 | 59 | 1009.1 |
| 20260508053015 | 43 | 298 | 0.9 | 7.8 | 0.00 | 0.02 | 0.00 | 61 | 1009.2 |
| 20260508051512 | 43 | 325 | 0.9 | 3.5 | 0.00 | 0.02 | 0.00 | 60 | 1009.4 |
| 20260508050013 | 43 | 304 | 0.0 | 3.5 | 0.00 | 0.02 | 0.00 | 61 | 1009.6 |
| 20260508044509 | 43 | 312 | 0.9 | 4.3 | 0.00 | 0.03 | 0.00 | 62 | 1009.6 |
| 20260508043008 | 43 | 305 | 0.0 | 2.6 | 0.00 | 0.03 | 0.00 | 59 | 1009.6 |
| 20260508041504 | 44 | 302 | 0.0 | 4.3 | 0.00 | 0.03 | 0.00 | 60 | 1009.7 |
| 20260508040100 | 45 | 318 | 0.0 | 0.9 | 0.00 | 0.03 | 0.00 | 57 | 1009.6 |
| 20260508034557 | 46 | 318 | 0.0 | 3.5 | 0.00 | 0.04 | 0.03 | 54 | 1009.6 |
| 20260508033056 | 47 | 355 | 0.0 | 3.5 | 0.00 | 0.04 | 0.03 | 52 | 1009.7 |
| 20260508031556 | 49 | 5 | 0.9 | 3.5 | 0.00 | 0.04 | 0.03 | 48 | 1009.5 |
| 20260508030055 | 50 | 13 | 0.0 | 7.0 | 0.00 | 0.04 | 0.03 | 47 | 1009.7 |
| 20260508024558 | 50 | 346 | 2.6 | 9.6 | 0.00 | 0.04 | 0.03 | 45 | 1009.6 |
| 20260508023056 | 51 | 346 | 1.7 | 7.0 | 0.00 | 0.04 | 0.03 | 45 | 1009.4 |
| 20260508021555 | 51 | 332 | 2.6 | 12.2 | 0.00 | 0.04 | 0.03 | 43 | 1009.2 |
| 20260508020154 | 52 | 59 | 2.6 | 9.6 | 0.00 | 0.04 | 0.03 | 43 | 1009.1 |
| 20260508014551 | 52 | 332 | 1.7 | 8.7 | 0.00 | 0.04 | 0.03 | 43 | 1008.8 |
| 20260508013050 | 52 | 323 | 1.7 | 7.0 | 0.00 | 0.04 | 0.03 | 44 | 1008.7 |
| 20260508011550 | 52 | 336 | 1.7 | 5.2 | 0.00 | 0.04 | 0.03 | 45 | 1008.4 |
| 20260508010049 | 52 | 298 | 0.9 | 3.5 | 0.00 | 0.04 | 0.03 | 47 | 1008.2 |
| 20260508004548 | 53 | 288 | 0.0 | 2.6 | 0.00 | 0.05 | 0.03 | 49 | 1008.1 |
| 20260508003048 | 54 | 261 | 0.0 | 2.6 | 0.00 | 0.05 | 0.03 | 45 | 1007.8 |
| 20260508001547 | 54 | 261 | 0.0 | 4.3 | 0.00 | 0.05 | 0.03 | 42 | 1007.5 |
| 20260508000047 | 55 | 269 | 0.9 | 2.6 | 0.00 | 0.05 | 0.03 | 42 | 1007.3 |
| 20260507234546 | 56 | 245 | 0.9 | 6.1 | 0.00 | 0.05 | 0.03 | 39 | 1007.3 |
| 20260507233046 | 57 | 313 | 2.6 | 7.8 | 0.00 | 0.05 | 0.03 | 37 | 1007.2 |
| 20260507231552 | 58 | 239 | 2.6 | 7.8 | 0.00 | 0.05 | 0.03 | 38 | 1007.0 |
| 20260507230048 | 58 | 262 | 3.5 | 12.2 | 0.00 | 0.05 | 0.03 | 36 | 1006.9 |
| 20260507224544 | 59 | 277 | 3.5 | 8.7 | 0.00 | 0.06 | 0.03 | 36 | 1006.5 |
| 20260507223044 | 60 | 355 | 5.2 | 12.2 | 0.00 | 0.06 | 0.03 | 33 | 1006.4 |
| 20260507221544 | 60 | 301 | 7.0 | 16.5 | 0.00 | 0.06 | 0.03 | 33 | 1006.3 |
| 20260507220041 | 61 | 318 | 6.1 | 13.0 | 0.00 | 0.06 | 0.03 | 35 | 1006.1 |
| 20260507214602 | 62 | 313 | 3.5 | 13.9 | 0.00 | 0.14 | 0.03 | 33 | 1006.3 |
| 20260507213040 | 62 | 240 | 7.0 | 13.0 | 0.00 | 0.14 | 0.03 | 32 | 1006.2 |
| 20260507211540 | 63 | 250 | 6.1 | 13.0 | 0.00 | 0.14 | 0.03 | 32 | 1006.1 |
| 20260507210050 | 63 | 265 | 5.2 | 13.0 | 0.00 | 0.14 | 0.03 | 33 | 1006.0 |
| 20260507204540 | 63 | 273 | 7.0 | 16.5 | 0.00 | 0.19 | 0.03 | 33 | 1005.9 |
| 20260507203048 | 64 | 302 | 4.3 | 11.3 | 0.00 | 0.19 | 0.03 | 32 | 1006.0 |
| 20260507201543 | 65 | 285 | 3.5 | 13.9 | 0.00 | 0.19 | 0.03 | 32 | 1005.8 |
| 20260507200038 | 66 | 261 | 7.0 | 13.0 | 0.00 | 0.19 | 0.03 | 32 | 1005.9 |
| 20260507194603 | 65 | 272 | 7.0 | 13.0 | 0.00 | 0.22 | 0.03 | 31 | 1005.9 |
| 20260507193036 | 65 | 324 | 7.8 | 14.8 | 0.00 | 0.22 | 0.03 | 35 | 1006.0 |
| 20260507191535 | 65 | 286 | 7.0 | 13.0 | 0.00 | 0.22 | 0.03 | 32 | 1006.1 |
| 20260507190033 | 65 | 274 | 4.3 | 13.0 | 0.00 | 0.22 | 0.03 | 34 | 1006.1 |
| 20260507184530 | 65 | 273 | 5.2 | 13.0 | 0.00 | 0.22 | 0.03 | 39 | 1006.2 |
| 20260507183035 | 64 | 304 | 3.5 | 12.2 | 0.00 | 0.22 | 0.03 | 44 | 1006.4 |
| 20260507181525 | 65 | 217 | 3.5 | 12.2 | 0.00 | 0.22 | 0.03 | 41 | 1006.4 |
| 20260507180024 | 64 | 247 | 7.0 | 13.9 | 0.00 | 0.22 | 0.03 | 43 | 1006.6 |
| 20260507174530 | 63 | 300 | 7.0 | 14.8 | 0.00 | 0.22 | 0.03 | 45 | 1006.7 |
| 20260507173020 | 62 | 259 | 7.8 | 18.2 | 0.00 | 0.22 | 0.03 | 46 | 1006.6 |
| 20260507171514 | 59 | 301 | 7.0 | 17.4 | 0.00 | 0.22 | 0.03 | 55 | 1006.8 |
| 20260507170012 | 55 | 263 | 3.5 | 8.7 | 0.00 | 0.22 | 0.03 | 71 | 1006.9 |
| 20260507164511 | 54 | 219 | 6.1 | 12.2 | 0.00 | 0.22 | 0.03 | 75 | 1007.2 |
| 20260507163010 | 53 | 193 | 4.3 | 9.6 | 0.00 | 0.22 | 0.03 | 78 | 1007.4 |
| 20260507161509 | 51 | 179 | 3.5 | 9.6 | 0.00 | 0.22 | 0.03 | 80 | 1007.7 |
| 20260507160008 | 52 | 252 | 3.5 | 8.7 | 0.00 | 0.22 | 0.03 | 79 | 1007.9 |
| 20260507154516 | 54 | 212 | 5.2 | 11.3 | 0.00 | 0.22 | 0.03 | 74 | 1007.9 |
| 20260507153017 | 54 | 241 | 3.5 | 11.3 | 0.00 | 0.22 | 0.03 | 76 | 1008.1 |
| 20260507151505 | 53 | 200 | 3.5 | 13.0 | 0.00 | 0.22 | 0.03 | 81 | 1008.2 |
| 20260507150006 | 54 | 134 | 3.5 | 8.7 | 0.00 | 0.22 | 0.03 | 79 | 1008.2 |
| 20260507144506 | 53 | 207 | 5.2 | 8.7 | 0.00 | 0.22 | 0.03 | 80 | 1008.3 |
| 20260507143004 | 53 | 195 | 4.3 | 7.8 | 0.00 | 0.22 | 0.03 | 79 | 1008.2 |
| 20260507141502 | 54 | 194 | 4.3 | 8.7 | 0.00 | 0.22 | 0.03 | 79 | 1008.4 |
| 20260507140004 | 54 | 183 | 2.6 | 7.8 | 0.00 | 0.22 | 0.03 | 80 | 1008.6 |
| 20260507134600 | 54 | 232 | 4.3 | 7.8 | 0.00 | 0.22 | 0.03 | 80 | 1008.6 |
| 20260507133106 | 54 | 219 | 3.5 | 8.7 | 0.00 | 0.22 | 0.03 | 79 | 1008.7 |
| 20260507131612 | 55 | 184 | 2.6 | 7.8 | 0.00 | 0.22 | 0.03 | 75 | 1008.8 |
| 20260507130054 | 56 | 304 | 2.6 | 5.2 | 0.00 | 0.22 | 0.03 | 74 | 1008.8 |
| 20260507124549 | 54 | 289 | 3.5 | 7.8 | 0.00 | 0.22 | 0.03 | 80 | 1008.9 |
| 20260507123046 | 52 | 265 | 2.6 | 6.1 | 0.00 | 0.22 | 0.03 | 81 | 1009.0 |
| 20260507121543 | 51 | 280 | 0.0 | 4.3 | 0.00 | 0.22 | 0.03 | 86 | 1008.9 |
| 20260507120042 | 48 | 311 | 0.9 | 4.3 | 0.00 | 0.22 | 0.03 | 88 | 1009.0 |
| 20260507114541 | 48 | 331 | 0.0 | 3.5 | 0.00 | 0.22 | 0.03 | 89 | 1009.1 |
| 20260507113039 | 48 | 297 | 0.0 | 2.6 | 0.01 | 0.22 | 0.03 | 91 | 1009.0 |
| 20260507111537 | 47 | 323 | 0.0 | 4.3 | 0.01 | 0.22 | 0.03 | 91 | 1009.0 |
| 20260507110037 | 46 | 327 | 0.0 | 2.6 | 0.01 | 0.22 | 0.03 | 91 | 1009.1 |
| 20260507104538 | 46 | 323 | 0.9 | 2.6 | 0.01 | 0.22 | 0.03 | 91 | 1008.9 |
| 20260507103036 | 46 | 319 | 0.0 | 1.7 | 0.00 | 0.21 | 0.02 | 91 | 1009.7 |
| 20260507101533 | 46 | 332 | 0.9 | 2.6 | 0.00 | 0.21 | 0.02 | 91 | 1009.2 |
| 20260507100035 | 46 | 273 | 0.9 | 2.6 | 0.00 | 0.21 | 0.02 | 91 | 1009.1 |
| 20260507094531 | 46 | 323 | 0.9 | 4.3 | 0.00 | 0.21 | 0.02 | 91 | 1009.1 |
| 20260507093029 | 47 | 306 | 1.7 | 4.3 | 0.00 | 0.21 | 0.02 | 91 | 1008.7 |
| 20260507091528 | 47 | 339 | 0.9 | 7.0 | 0.00 | 0.21 | 0.02 | 91 | 1008.3 |
| 20260507090026 | 47 | 345 | 2.6 | 5.2 | 0.00 | 0.21 | 0.02 | 92 | 1008.4 |
| 20260507084523 | 48 | 15 | 0.9 | 7.0 | 0.00 | 0.21 | 0.02 | 92 | 1008.4 |
| 20260507083022 | 48 | 317 | 1.7 | 5.2 | 0.00 | 0.21 | 0.02 | 93 | 1008.8 |
| 20260507081520 | 48 | 349 | 0.9 | 4.3 | 0.00 | 0.21 | 0.02 | 93 | 1008.3 |
| 20260507080017 | 49 | 342 | 1.7 | 4.3 | 0.00 | 0.21 | 0.02 | 93 | 1007.9 |
| 20260507074515 | 49 | 327 | 0.9 | 2.6 | 0.00 | 0.21 | 0.02 | 93 | 1008.2 |
| 20260507073014 | 49 | 327 | 0.9 | 2.6 | 0.00 | 0.21 | 0.02 | 93 | 1008.2 |
| 20260507071531 | 49 | 344 | 1.7 | 4.3 | 0.00 | 0.21 | 0.02 | 93 | 1007.7 |
| 20260507070012 | 50 | 311 | 0.9 | 4.3 | 0.00 | 0.21 | 0.02 | 93 | 1007.6 |
| 20260507064507 | 50 | 308 | 0.9 | 2.6 | 0.00 | 0.21 | 0.02 | 93 | 1007.7 |
| 20260507063008 | 50 | 308 | 0.0 | 1.7 | 0.00 | 0.21 | 0.02 | 93 | 1007.6 |
| 20260507061506 | 50 | 308 | 0.0 | 1.7 | 0.01 | 0.21 | 0.02 | 93 | 1007.3 |